Powrót do katalogu

NOAA 16 DEB

AktywnySSO
NORAD 41062·DEBRIS·🇺🇸 United States

Wystrzelony Sep 21, 2000 z Vandenberg Space Force Base

Loading…

Następne Przeloty (najbliższe 24 godziny)

TLE

ŚwieżeSource: Space-Track

Epoka: Sep 14, 2026, 12:54 UTC

1 41062U 00055V   26257.53778915  .00001535  00000-0  75764-3 0  9996
2 41062  98.6531 287.7224 0024246 294.4943  65.3705 14.18760233555738

Śledź NOAA 16 DEB w czasie rzeczywistym z AllMySat

Download on the App Store